| time (UTC) | temp F | wind direction | speed MPH | gust MPH | rain 1hr in | rain 24hr in | rain mn in | humidity % | barometer mb |
| 20260504141017 | 62 | 260 | 4.0 | 9.0 | 0.00 | 0.00 | 0.00 | 51 | 1013.3 |
| 20260504140513 | 62 | 248 | 3.0 | 9.0 | 0.00 | 0.00 | 0.00 | 52 | 1013.3 |
| 20260504130511 | 57 | 221 | 2.0 | 8.0 | 0.00 | 0.00 | 0.00 | 61 | 1013.8 |
| 20260504110512 | 34 | 0 | 0.0 | 0.0 | 0.00 | 0.00 | 0.00 | 94 | 1014.5 |
| 20260504100512 | 33 | 0 | 0.0 | 0.0 | 0.00 | 0.00 | 0.00 | 92 | 1014.3 |
| 20260504081529 | 34 | 0 | 0.0 | 0.0 | 0.00 | 0.00 | 0.00 | 91 | 1014.4 |
| 20260504081016 | 34 | 0 | 0.0 | 0.0 | 0.00 | 0.00 | 0.00 | 90 | 1014.4 |
| 20260504080514 | 34 | 0 | 0.0 | 0.0 | 0.00 | 0.00 | 0.00 | 90 | 1014.3 |
| 20260504050512 | 37 | 0 | 0.0 | 0.0 | 0.00 | 0.00 | 0.00 | 85 | 1014.1 |
| 20260504045515 | 37 | 0 | 0.0 | 0.0 | 0.00 | 0.00 | 0.00 | 85 | 1014.1 |
| 20260504045013 | 37 | 0 | 0.0 | 0.0 | 0.00 | 0.00 | 0.00 | 85 | 1014.1 |
| 20260504044535 | 38 | 0 | 0.0 | 0.0 | 0.00 | 0.00 | 0.00 | 86 | 1014.1 |
| 20260504044013 | 38 | 0 | 0.0 | 0.0 | 0.00 | 0.00 | 0.00 | 85 | 1014.1 |
| 20260504043522 | 38 | 0 | 0.0 | 0.0 | 0.00 | 0.00 | 0.00 | 84 | 1014.1 |
| 20260504043036 | 38 | 0 | 0.0 | 0.0 | 0.00 | 0.00 | 0.00 | 84 | 1014.1 |
| 20260504042512 | 38 | 0 | 0.0 | 0.0 | 0.00 | 0.00 | 0.00 | 84 | 1014.0 |
| 20260504042010 | 38 | 0 | 0.0 | 0.0 | 0.00 | 0.00 | 0.00 | 83 | 1014.0 |
| 20260504041531 | 38 | 0 | 0.0 | 0.0 | 0.00 | 0.00 | 0.00 | 83 | 1014.0 |
| 20260504041015 | 39 | 0 | 0.0 | 0.0 | 0.00 | 0.00 | 0.00 | 83 | 1014.0 |
| 20260504040511 | 39 | 0 | 0.0 | 0.0 | 0.00 | 0.00 | 0.00 | 83 | 1013.9 |
| 20260504040030 | 39 | 0 | 0.0 | 0.0 | 0.00 | 0.00 | 0.00 | 82 | 1013.7 |
| 20260504035514 | 39 | 0 | 0.0 | 0.0 | 0.00 | 0.00 | 0.00 | 82 | 1013.7 |
| 20260504035014 | 39 | 0 | 0.0 | 0.0 | 0.00 | 0.00 | 0.00 | 82 | 1013.6 |
| 20260504034530 | 39 | 0 | 0.0 | 0.0 | 0.00 | 0.00 | 0.00 | 82 | 1013.5 |
| 20260504034013 | 40 | 0 | 0.0 | 0.0 | 0.00 | 0.00 | 0.00 | 81 | 1013.6 |
| 20260504033513 | 40 | 0 | 0.0 | 0.0 | 0.00 | 0.00 | 0.00 | 81 | 1013.6 |
| 20260504033035 | 40 | 0 | 0.0 | 0.0 | 0.00 | 0.00 | 0.00 | 81 | 1013.5 |
| 20260504032514 | 40 | 0 | 0.0 | 0.0 | 0.00 | 0.00 | 0.00 | 80 | 1013.5 |
| 20260504032013 | 40 | 0 | 0.0 | 0.0 | 0.00 | 0.00 | 0.00 | 79 | 1013.4 |
| 20260504031531 | 40 | 0 | 0.0 | 0.0 | 0.00 | 0.00 | 0.00 | 79 | 1013.4 |
| 20260504031012 | 41 | 0 | 0.0 | 0.0 | 0.00 | 0.00 | 0.00 | 79 | 1013.4 |
| 20260504030511 | 41 | 0 | 0.0 | 0.0 | 0.00 | 0.00 | 0.00 | 79 | 1013.4 |
| 20260504030031 | 41 | 0 | 0.0 | 0.0 | 0.00 | 0.00 | 0.00 | 78 | 1013.4 |
| 20260504025511 | 41 | 0 | 0.0 | 0.0 | 0.00 | 0.00 | 0.00 | 78 | 1013.4 |
| 20260504025011 | 41 | 0 | 0.0 | 0.0 | 0.00 | 0.00 | 0.00 | 77 | 1013.4 |
| 20260504024540 | 42 | 0 | 0.0 | 0.0 | 0.00 | 0.00 | 0.00 | 76 | 1013.5 |
| 20260504024014 | 42 | 0 | 0.0 | 0.0 | 0.00 | 0.00 | 0.00 | 75 | 1013.4 |
| 20260504023514 | 42 | 0 | 0.0 | 0.0 | 0.00 | 0.00 | 0.00 | 75 | 1013.5 |
| 20260504023034 | 43 | 0 | 0.0 | 0.0 | 0.00 | 0.00 | 0.00 | 75 | 1013.4 |
| 20260504022518 | 43 | 0 | 0.0 | 0.0 | 0.00 | 0.00 | 0.00 | 74 | 1013.5 |
| 20260504022014 | 43 | 0 | 0.0 | 0.0 | 0.00 | 0.00 | 0.00 | 73 | 1013.6 |
| 20260504021532 | 43 | 0 | 0.0 | 0.0 | 0.00 | 0.00 | 0.00 | 73 | 1013.5 |
| 20260504021013 | 44 | 0 | 0.0 | 0.0 | 0.00 | 0.00 | 0.00 | 73 | 1013.5 |
| 20260504020510 | 44 | 0 | 0.0 | 0.0 | 0.00 | 0.00 | 0.00 | 70 | 1013.4 |
| 20260504020030 | 44 | 0 | 0.0 | 0.0 | 0.00 | 0.00 | 0.00 | 71 | 1013.4 |
| 20260504015513 | 45 | 0 | 0.0 | 0.0 | 0.00 | 0.00 | 0.00 | 69 | 1013.3 |
| 20260504015015 | 45 | 0 | 0.0 | 0.0 | 0.00 | 0.00 | 0.00 | 69 | 1013.3 |
| 20260504014530 | 46 | 0 | 0.0 | 0.0 | 0.00 | 0.00 | 0.00 | 70 | 1013.3 |
| 20260504014017 | 46 | 0 | 0.0 | 0.0 | 0.00 | 0.00 | 0.00 | 67 | 1013.4 |
| 20260504013514 | 47 | 0 | 0.0 | 0.0 | 0.00 | 0.00 | 0.00 | 66 | 1013.3 |
| 20260504013036 | 47 | 0 | 0.0 | 0.0 | 0.00 | 0.00 | 0.00 | 65 | 1013.3 |
| 20260504012514 | 48 | 0 | 0.0 | 0.0 | 0.00 | 0.00 | 0.00 | 64 | 1013.3 |
| 20260504012015 | 48 | 0 | 0.0 | 0.0 | 0.00 | 0.00 | 0.00 | 64 | 1013.3 |
| 20260504011530 | 49 | 0 | 0.0 | 0.0 | 0.00 | 0.00 | 0.00 | 64 | 1013.2 |
| 20260504011013 | 50 | 0 | 0.0 | 0.0 | 0.00 | 0.00 | 0.00 | 64 | 1013.2 |
| 20260504010514 | 50 | 0 | 0.0 | 0.0 | 0.00 | 0.00 | 0.00 | 61 | 1013.1 |
| 20260504010030 | 51 | 0 | 0.0 | 0.0 | 0.00 | 0.00 | 0.00 | 61 | 1013.1 |
| 20260504005514 | 51 | 0 | 0.0 | 0.0 | 0.00 | 0.00 | 0.00 | 60 | 1013.1 |
| 20260504005014 | 51 | 0 | 0.0 | 0.0 | 0.00 | 0.00 | 0.00 | 59 | 1013.0 |
| 20260504004530 | 52 | 0 | 0.0 | 0.0 | 0.00 | 0.00 | 0.00 | 57 | 1013.0 |
| 20260504004013 | 52 | 0 | 0.0 | 0.0 | 0.00 | 0.00 | 0.00 | 57 | 1012.9 |
| 20260504003513 | 52 | 0 | 0.0 | 0.0 | 0.00 | 0.00 | 0.00 | 56 | 1012.9 |
| 20260504003040 | 53 | 0 | 0.0 | 0.0 | 0.00 | 0.00 | 0.00 | 57 | 1012.7 |
| 20260504002513 | 53 | 0 | 0.0 | 0.0 | 0.00 | 0.00 | 0.00 | 53 | 1012.6 |
| 20260504002010 | 54 | 0 | 0.0 | 0.0 | 0.00 | 0.00 | 0.00 | 55 | 1012.5 |
| 20260504001529 | 54 | 0 | 0.0 | 0.0 | 0.00 | 0.00 | 0.00 | 52 | 1012.3 |
| 20260504001013 | 54 | 0 | 0.0 | 1.0 | 0.00 | 0.00 | 0.00 | 52 | 1012.3 |
| 20260504000511 | 55 | 0 | 0.0 | 4.0 | 0.00 | 0.00 | 0.00 | 50 | 1012.2 |
| 20260504000032 | 55 | 291 | 0.0 | 4.0 | 0.00 | 0.00 | 0.00 | 47 | 1012.2 |
| 20260503235511 | 56 | 291 | 0.0 | 2.0 | 0.00 | 0.00 | 0.00 | 45 | 1012.1 |
| 20260503235012 | 56 | 291 | 0.0 | 7.0 | 0.00 | 0.00 | 0.00 | 45 | 1012.1 |
| 20260503234530 | 56 | 291 | 3.0 | 7.0 | 0.00 | 0.00 | 0.00 | 43 | 1012.0 |
| 20260503234014 | 57 | 271 | 1.0 | 4.0 | 0.00 | 0.00 | 0.00 | 45 | 1012.0 |
| 20260503233514 | 57 | 271 | 1.0 | 4.0 | 0.00 | 0.00 | 0.00 | 43 | 1011.9 |
| 20260503233037 | 57 | 271 | 2.0 | 4.0 | 0.00 | 0.00 | 0.00 | 44 | 1011.9 |
| 20260503232514 | 58 | 271 | 2.0 | 4.0 | 0.00 | 0.00 | 0.00 | 42 | 1011.9 |
| 20260503232013 | 58 | 271 | 1.0 | 4.0 | 0.00 | 0.00 | 0.00 | 42 | 1011.9 |
| 20260503231530 | 58 | 271 | 2.0 | 8.0 | 0.00 | 0.00 | 0.00 | 44 | 1011.9 |
| 20260503231015 | 59 | 271 | 2.0 | 8.0 | 0.00 | 0.00 | 0.00 | 41 | 1011.9 |
| 20260503230510 | 59 | 281 | 2.0 | 6.0 | 0.00 | 0.00 | 0.00 | 41 | 1011.9 |
| 20260503230031 | 59 | 272 | 2.0 | 9.0 | 0.00 | 0.00 | 0.00 | 42 | 1011.7 |
| 20260503225512 | 59 | 241 | 3.0 | 9.0 | 0.00 | 0.00 | 0.00 | 39 | 1011.8 |
| 20260503225014 | 59 | 264 | 1.0 | 7.0 | 0.00 | 0.00 | 0.00 | 41 | 1011.8 |
| 20260503224531 | 59 | 264 | 2.0 | 7.0 | 0.00 | 0.00 | 0.00 | 42 | 1011.8 |
| 20260503224015 | 60 | 285 | 2.0 | 5.0 | 0.00 | 0.00 | 0.00 | 39 | 1011.7 |
| 20260503223516 | 60 | 221 | 2.0 | 5.0 | 0.00 | 0.00 | 0.00 | 38 | 1011.8 |
| 20260503223030 | 60 | 273 | 2.0 | 6.0 | 0.00 | 0.00 | 0.00 | 37 | 1011.8 |
| 20260503222513 | 60 | 263 | 2.0 | 8.0 | 0.00 | 0.00 | 0.00 | 36 | 1011.8 |
| 20260503222013 | 60 | 284 | 4.0 | 8.0 | 0.00 | 0.00 | 0.00 | 37 | 1011.8 |
| 20260503221535 | 60 | 275 | 3.0 | 9.0 | 0.00 | 0.00 | 0.00 | 36 | 1011.8 |
| 20260503221011 | 60 | 284 | 4.0 | 9.0 | 0.00 | 0.00 | 0.00 | 36 | 1011.8 |
| 20260503220514 | 61 | 273 | 4.0 | 8.0 | 0.00 | 0.00 | 0.00 | 35 | 1011.8 |
| 20260503220032 | 61 | 290 | 2.0 | 9.0 | 0.00 | 0.00 | 0.00 | 35 | 1011.8 |
| 20260503215514 | 61 | 302 | 4.0 | 9.0 | 0.00 | 0.00 | 0.00 | 36 | 1011.7 |
| 20260503215013 | 61 | 263 | 5.0 | 9.0 | 0.00 | 0.00 | 0.00 | 35 | 1011.8 |
| 20260503214532 | 61 | 302 | 4.0 | 8.0 | 0.00 | 0.00 | 0.00 | 35 | 1011.6 |
| 20260503214011 | 61 | 302 | 3.0 | 7.0 | 0.00 | 0.00 | 0.00 | 36 | 1011.7 |
| 20260503213513 | 60 | 196 | 1.0 | 9.0 | 0.00 | 0.00 | 0.00 | 37 | 1011.6 |
| 20260503213033 | 60 | 244 | 3.0 | 9.0 | 0.00 | 0.00 | 0.00 | 35 | 1011.7 |
| 20260503212515 | 61 | 274 | 3.0 | 8.0 | 0.00 | 0.00 | 0.00 | 34 | 1011.6 |
| 20260503212013 | 61 | 327 | 3.0 | 9.0 | 0.00 | 0.00 | 0.00 | 35 | 1011.6 |
| 20260503211531 | 61 | 244 | 2.0 | 9.0 | 0.00 | 0.00 | 0.00 | 35 | 1011.6 |
| 20260503211012 | 60 | 291 | 2.0 | 7.0 | 0.00 | 0.00 | 0.00 | 34 | 1011.5 |
| 20260503210515 | 60 | 267 | 1.0 | 7.0 | 0.00 | 0.00 | 0.00 | 36 | 1011.7 |
| 20260503210032 | 60 | 269 | 3.0 | 9.0 | 0.00 | 0.00 | 0.00 | 34 | 1011.7 |
| 20260503205512 | 60 | 306 | 4.0 | 10.0 | 0.00 | 0.00 | 0.00 | 32 | 1011.7 |
| 20260503205011 | 60 | 298 | 3.0 | 10.0 | 0.00 | 0.00 | 0.00 | 34 | 1011.8 |
| 20260503204530 | 60 | 275 | 6.0 | 10.0 | 0.00 | 0.00 | 0.00 | 35 | 1011.8 |
| 20260503204013 | 61 | 269 | 2.0 | 10.0 | 0.00 | 0.00 | 0.00 | 34 | 1011.7 |
| 20260503203515 | 61 | 277 | 5.0 | 10.0 | 0.00 | 0.00 | 0.00 | 37 | 1011.7 |
| 20260503203036 | 61 | 291 | 3.0 | 10.0 | 0.00 | 0.00 | 0.00 | 36 | 1011.9 |
| 20260503202511 | 60 | 295 | 3.0 | 10.0 | 0.00 | 0.00 | 0.00 | 37 | 1011.9 |
| 20260503202012 | 59 | 238 | 3.0 | 10.0 | 0.00 | 0.00 | 0.00 | 38 | 1011.9 |
| 20260503201530 | 59 | 305 | 4.0 | 12.0 | 0.00 | 0.00 | 0.00 | 36 | 1012.1 |
| 20260503201014 | 60 | 265 | 5.0 | 12.0 | 0.00 | 0.00 | 0.00 | 35 | 1012.1 |
| 20260503200511 | 60 | 266 | 2.0 | 7.0 | 0.00 | 0.00 | 0.00 | 37 | 1012.1 |
| 20260503200031 | 60 | 304 | 3.0 | 8.0 | 0.00 | 0.00 | 0.00 | 36 | 1012.2 |
| 20260503195512 | 60 | 286 | 3.0 | 11.0 | 0.00 | 0.00 | 0.00 | 36 | 1012.2 |
| 20260503195010 | 60 | 269 | 6.0 | 13.0 | 0.00 | 0.00 | 0.00 | 37 | 1012.3 |
| 20260503194532 | 59 | 295 | 4.0 | 13.0 | 0.00 | 0.00 | 0.00 | 36 | 1012.3 |
| 20260503194011 | 60 | 288 | 6.0 | 10.0 | 0.00 | 0.00 | 0.00 | 35 | 1012.4 |
| 20260503193516 | 60 | 352 | 2.0 | 12.0 | 0.00 | 0.00 | 0.00 | 39 | 1012.4 |
| 20260503193031 | 59 | 339 | 3.0 | 12.0 | 0.00 | 0.00 | 0.00 | 37 | 1012.3 |
| 20260503192512 | 60 | 256 | 5.0 | 12.0 | 0.00 | 0.00 | 0.00 | 39 | 1012.5 |
| 20260503192013 | 59 | 248 | 5.0 | 9.0 | 0.00 | 0.00 | 0.00 | 40 | 1012.6 |
| 20260503191531 | 58 | 286 | 4.0 | 11.0 | 0.00 | 0.00 | 0.00 | 42 | 1012.5 |
| 20260503191012 | 59 | 254 | 4.0 | 11.0 | 0.00 | 0.00 | 0.00 | 38 | 1012.5 |
| 20260503190514 | 58 | 277 | 4.0 | 11.0 | 0.00 | 0.00 | 0.00 | 40 | 1012.6 |
| 20260503190029 | 58 | 274 | 5.0 | 11.0 | 0.00 | 0.00 | 0.00 | 48 | 1012.7 |
| 20260503185512 | 57 | 296 | 5.0 | 11.0 | 0.00 | 0.00 | 0.00 | 41 | 1012.7 |
| 20260503185013 | 57 | 284 | 3.0 | 11.0 | 0.00 | 0.00 | 0.00 | 38 | 1012.8 |
| 20260503184534 | 58 | 251 | 3.0 | 11.0 | 0.00 | 0.00 | 0.00 | 43 | 1012.7 |
| 20260503184016 | 58 | 287 | 7.0 | 12.0 | 0.00 | 0.00 | 0.00 | 39 | 1012.8 |
| 20260503183515 | 57 | 13 | 6.0 | 14.0 | 0.00 | 0.00 | 0.00 | 38 | 1013.0 |
| 20260503183031 | 58 | 290 | 4.0 | 14.0 | 0.00 | 0.00 | 0.00 | 42 | 1012.8 |
| 20260503182515 | 58 | 261 | 5.0 | 11.0 | 0.00 | 0.00 | 0.00 | 35 | 1012.8 |
| 20260503182014 | 58 | 249 | 2.0 | 11.0 | 0.00 | 0.00 | 0.00 | 43 | 1012.9 |
| 20260503181532 | 58 | 283 | 5.0 | 14.0 | 0.00 | 0.00 | 0.00 | 37 | 1013.1 |
| 20260503181013 | 58 | 279 | 7.0 | 14.0 | 0.00 | 0.00 | 0.00 | 38 | 1013.1 |
| 20260503180515 | 58 | 285 | 4.0 | 15.0 | 0.00 | 0.00 | 0.00 | 40 | 1013.1 |
| 20260503180036 | 58 | 275 | 4.0 | 15.0 | 0.00 | 0.00 | 0.00 | 42 | 1013.1 |
| 20260503175515 | 57 | 5 | 4.0 | 11.0 | 0.00 | 0.00 | 0.00 | 39 | 1013.1 |
| 20260503175015 | 57 | 279 | 5.0 | 14.0 | 0.00 | 0.00 | 0.00 | 36 | 1013.1 |
| 20260503174533 | 57 | 269 | 5.0 | 14.0 | 0.00 | 0.00 | 0.00 | 41 | 1013.2 |
| 20260503174019 | 57 | 259 | 3.0 | 15.0 | 0.00 | 0.00 | 0.00 | 45 | 1013.1 |
| 20260503173513 | 57 | 271 | 6.0 | 15.0 | 0.00 | 0.00 | 0.00 | 36 | 1013.2 |
| 20260503173034 | 57 | 311 | 3.0 | 13.0 | 0.00 | 0.00 | 0.00 | 41 | 1013.4 |
| 20260503172519 | 57 | 295 | 5.0 | 13.0 | 0.00 | 0.00 | 0.00 | 43 | 1013.2 |
| 20260503172013 | 58 | 269 | 4.0 | 9.0 | 0.00 | 0.00 | 0.00 | 42 | 1013.2 |
| 20260503171537 | 57 | 210 | 3.0 | 10.0 | 0.00 | 0.00 | 0.00 | 45 | 1013.3 |
| 20260503171015 | 57 | 281 | 5.0 | 11.0 | 0.00 | 0.00 | 0.00 | 42 | 1013.3 |
| 20260503170516 | 57 | 350 | 4.0 | 13.0 | 0.00 | 0.00 | 0.00 | 42 | 1013.2 |
| 20260503150516 | 52 | 232 | 2.0 | 5.0 | 0.00 | 0.00 | 0.00 | 49 | 1013.9 |